Regional Weather Roundup
Issued by NWS

Home | Current Version | Previous Version | Graphics & Text | Print | Product List | Glossary On
Versions: 1 2 3 4 5 6 7 8 9 10 11 12 13 14 15 16 17 18 19 20 21 22 23 24 25 26 27 28 29 30 31 32 33 34 35 36 37 38 39 40 41 42 43 44 45 46 47 48 49 50
000
ASUS43 KMPX 220910
RWRMN
WEATHER ROUNDUP FOR MINNESOTA
NATIONAL WEATHER SERVICE TWIN CITIES/CHANHASSEN MN
400 AM CDT WED OCT 22 2014


NOTE: "FAIR" INDICATES FEW OR NO CLOUDS BELOW 12,000 FEET WITH NO
SIGNIFICANT WEATHER AND/OR OBSTRUCTIONS TO VISIBILITY. N/A MEANS
CURRENT SKY AND/OR WEATHER CONDITIONS ARE NOT AVAILABLE.

MNZ060>063-068>070-221000-
   Twin Cities Metro

CITY           SKY/WX    TMP DP  RH WIND       PRES   REMARKS
TWIN CITIES    CLEAR     41  36  82 SE9       30.19S
ST PAUL        CLEAR     43  37  79 SE16      30.21S
CRYSTAL        CLEAR     44  37  76 SE12      30.18R
BLAINE         CLEAR     45  39  81 SE12      30.18S
LAKEVILLE      CLEAR     37  36  93 SE6       30.19S
EDEN PRAIRIE   CLEAR     42  37  82 SE13      30.17S
SOUTH ST PAUL  CLEAR     43  37  79 SE6       30.20S
LAKE ELMO      FAIR      41  37  87 S6        30.22R
$$
MNZ001>005-007-008-013>017-022>024-027-028-221000-
   Northwest Minnesota

CITY           SKY/WX    TMP DP  RH WIND       PRES   REMARKS
BEMIDJI        CLEAR     45  38  77 SE14      30.01F
HALLOCK        CLEAR     55  43  62 S28G33    29.80F
ROSEAU         CLEAR     52  43  71 S20G29    29.90F
WARROAD        CLEAR     46  43  87 SE10      29.93F
THIEF RVR FALL CLEAR     52  39  62 SE17      29.90F
CROOKSTON      CLEAR     54  43  66 S26G33    29.86F
FOSSTON        CLEAR     48  39  71 SE15G23   29.94F
DETROIT LAKES  CLEAR     50  41  71 SE16G22   29.98S
MOORHEAD       PTCLDY    55  45  67 SE26G32   29.90F
PARK RAPIDS    CLEAR     46  39  76 SE20      30.03F
MAHNOMEN       FAIR      49  40  70 SE16G24   29.94S
$$
MNZ006-009>011-018-025>026-221000-
   North Central Minnesota

CITY           SKY/WX    TMP DP  RH WIND       PRES   REMARKS
BAUDETTE       CLEAR     44  37  76 SE7       29.99F
FLAG ISLAND    CLEAR     46  41  81 S26       29.93F
INTL FALLS     CLEAR     41  35  79 SE9       30.07S
WASKISH        CLEAR     46  39  76 SE14G22   30.00S
BIG FORK       CLEAR     45  36  70 S9        30.09S
LONGVILLE      CLEAR     45  39  81 SE9       30.08S
GRAND RAPIDS   CLEAR     37  34  87 SE8       30.11S
CRANE LAKE     CLEAR     39  36  87 SE3       30.15S
ORR            CLEAR     39  34  81 SE8       30.10S
COOK           CLEAR     43  36  75 S8        30.14F
WALKER         FAIR      46  38  74 SE13G18   30.04F
$$
MNZ012-019>021-037-221000-
   Northeast Minnesota

CITY           SKY/WX    TMP DP  RH WIND       PRES   REMARKS
DULUTH         CLEAR     40  34  79 SE9       30.18F
ELY            CLEAR     37  36  93 S8        30.17S
HIBBING        CLEAR     35  32  88 SE5       30.15S WCI  31
EVELETH        CLEAR     36  36 100 CALM      30.17S
DULUTH HARBOR  CLEAR     43  37  81 CALM      30.22S
TWO HARBORS    CLEAR     34  23  64 CALM      30.20S
SILVER BAY     CLEAR     34  32  93 CALM      30.21S
GRAND MARAIS     N/A     35  33  92 N3        30.25F
G MARAIS ARPRT FOG       36  32  87 SE5       30.23S VSB 1/4
$$
MNZ029>031-032-039>041-046>048-054>057-064-221000-
   West Central Minnesota

CITY           SKY/WX    TMP DP  RH WIND       PRES   REMARKS
FERGUS FALLS   PTCLDY    52  37  58 SE23      29.98S
WHEATON        MOCLDY    50  41  71 SE21      29.96F
MORRIS         CLEAR     48  41  76 SE16G23   30.00S
ALEXANDRIA     PTCLDY    48  40  73 SE16G24   30.05F
ELBOW LAKE     CLOUDY    51  41  69 SE23      29.99S
WADENA         CLEAR     45  37  76 SE14      30.03F
GLENWOOD       PTCLDY    46  39  76 SE16      30.06S
APPLETON       PTCLDY    52  41  66 SE16G22   30.01S
BENSON         PTCLDY    48  39  71 S15G21    30.04S
ORTONVILLE     PTCLDY    50  43  76 SE15      29.97F
MADISON        PTCLDY    54  45  71 SE14      30.00S
WILLMAR        FAIR      46  37  71 SE14      30.09S
$$
MNZ033>034-036-042>043-049>051-058-059-221000-
   Central Minnesota

CITY           SKY/WX    TMP DP  RH WIND       PRES   REMARKS
ST CLOUD       CLEAR     45  37  73 SE9       30.13F
SAUK CENTRE    FAIR      44  38  80 SE12      30.08F
PAYNESVILLE    CLEAR     44  37  76 E14G20    30.11R
AITKIN         CLEAR     46  39  76 S14G22    30.11S
PINE RIVER     CLEAR     45  37  76 SE9G17    30.12R
BRAINERD       CLEAR     44  37  76 SE12      30.11F
STAPLES        CLEAR     45  37  76 SE10      30.06S
LONG PRAIRIE   FAIR      43  37  81 SE15      30.08S
LITTLE FALLS   CLEAR     41  36  81 SE8       30.11S
LITCHFIELD     CLEAR     46  39  76 SE9G16    30.12S
BUFFALO        CLEAR     44  37  75 SE7       30.16S
MAPLE LAKE     CLEAR     45  40  81 SE9       30.15F
$$
MNZ037-044-045-052-053-221000-
   East Central Minnesota

CITY           SKY/WX    TMP DP  RH WIND       PRES   REMARKS
PRINCETON      CLEAR     43  37  81 SE6       30.16S
MORA           CLEAR     39  34  81 S6        30.19S
CAMBRIDGE      CLEAR     45  34  65 SE5       30.16S
RUSH CITY      CLEAR     41  36  81 SE6       30.19S
MOOSE LAKE     CLEAR     41  34  75 S5        30.16S
HINCKLEY       FAIR      39  36  87 CALM      30.19S
CLOQUET        CLEAR     36  34  93 CALM      30.18S
MCGREGOR       CLEAR     41  36  81 SE9       30.15S
$$
MNZ071>073-080-081-089-090-097-098-221000-
   Southwest Minnesota

CITY           SKY/WX    TMP DP  RH WIND       PRES   REMARKS
MONTEVIDEO     MOCLDY    48  41  76 CALM      30.04F
GRANITE FALLS  PTCLDY    47  40  76 SE9       30.07R
CANBY          MOCLDY    55  44  67 SE12      30.01S
MARSHALL       CLOUDY    52  39  62 S21G30    30.03S
REDWOOD FALLS  CLEAR     47  39  74 SE14      30.09S
OLIVIA         PTCLDY    46  37  71 SE13      30.08S
PIPESTONE      PTCLDY    52  43  71 S17G23    30.02F
WINDOM         CLEAR     46  39  76 SE13      30.10R
WORTHINGTON    MOCLDY    48  39  71 S15G23    30.08S
JACKSON        CLEAR     45  37  76 SE12      30.11F
TRACY          PTCLDY    49  41  72 S17G24    30.05S
SLAYTON        PTCLDY    48  41  76 SE16      30.06F
$$
MNZ065>067-074>077-082>085-091>093-221000-
   South Central Minnesota

CITY           SKY/WX    TMP DP  RH WIND       PRES   REMARKS
MANKATO        CLEAR     43  34  70 SE16      30.15F
NEW ULM        CLEAR     43  37  81 S13       30.13S
ST JAMES       CLEAR     45  37  76 SE15      30.14R
FAIRMONT       CLEAR     45  34  65 SE16G22   30.14S
GLENCOE        CLEAR     45  39  80 SE10      30.14S
FARIBAULT      CLEAR     43  37  81 SE9       30.19S
OWATONNA       CLEAR     43  36  75 SE10G20   30.19S
WASECA         CLEAR     41  34  75 SE13G18   30.19S
ALBERT LEA     CLEAR     41  37  87 SE15      30.19S
$$
MNZ078>079-086>088-094>096-221000-
   Southeast Minnesota

CITY           SKY/WX    TMP DP  RH WIND       PRES   REMARKS
ROCHESTER      CLEAR     37  35  92 S9        30.23S
RED WING       CLEAR     43  37  81 SE8       30.23R
STANTON        CLEAR     43  37  78 S8G16     30.18F
DODGE CENTER   CLEAR     39  37  93 SE12      30.21S
WINONA         CLEAR     37  36  93 SE5       30.26S
AUSTIN         CLEAR     39  36  87 SE8       30.21S
PRESTON        CLEAR     37  35  90 SE10      30.24F
$$
ABBREVIATIONS USED IN REMARKS
   TC - TEMPERATURES IN CELSIUS
  WCI - WIND CHILL INDEX
   HX - HEAT INDEX
  VSB - VISIBILITY
$$



USA.gov is the U.S. government's official web portal to all federal, state and local government web resources and services.